Fort Patrick Henry Observed Data For Previous 48 Hours

Caption
Day and Hour Reservoir Elevation (behind dam)* Tailwater Elevation (below dam)* Average Hourly Discharge*
12/10/2018 2 AM EST 1,259.74 1,194.65 5,634
12/10/2018 3 AM EST 1,259.54 1,194.62 5,631
12/10/2018 4 AM EST 1,259.31 1,194.60 5,613
12/10/2018 5 AM EST 1,259.12 1,194.63 5,598
12/10/2018 6 AM EST 1,258.97 1,194.61 5,599
12/10/2018 7 AM EST 1,259.16 1,194.65 5,592
12/10/2018 8 AM EST 1,259.36 1,194.61 5,586
12/10/2018 9 AM EST 1,259.46 1,194.64 5,595
12/10/2018 10 AM EST 1,259.56 1,194.64 5,598
12/10/2018 11 AM EST 1,259.65 1,194.64 5,586
12/10/2018 12 PM EST 1,259.45 1,194.63 5,581
12/10/2018 1 PM EST 1,259.25 1,194.27 5,564
12/10/2018 2 PM EST 1,259.14 1,194.09 4,920
12/10/2018 3 PM EST 1,258.96 1,194.07 4,922
12/10/2018 4 PM EST 1,258.81 1,194.06 4,937
12/10/2018 5 PM EST 1,258.66 1,194.09 4,948
12/10/2018 6 PM EST 1,258.89 1,194.06 4,946
12/10/2018 7 PM EST 1,259.14 1,194.11 4,956
12/10/2018 8 PM EST 1,259.22 1,194.06 4,959
12/10/2018 9 PM EST 1,259.38 1,194.10 4,963
12/10/2018 10 PM EST 1,259.57 1,194.08 4,971
12/10/2018 11 PM EST 1,259.69 1,194.12 4,999
12/11/2018 12 AM EST 1,259.52 1,194.10 4,993
12/11/2018 1 AM EST 1,259.39 1,194.11 4,991
12/11/2018 2 AM EST 1,259.28 1,194.09 4,987
12/11/2018 3 AM EST 1,259.15 1,194.14 5,001
12/11/2018 4 AM EST 1,259.04 1,194.05 4,975
12/11/2018 5 AM EST 1,258.91 1,194.10 4,982
12/11/2018 6 AM EST 1,259.12 1,194.08 4,982
12/11/2018 7 AM EST 1,259.39 1,194.10 4,978
12/11/2018 8 AM EST 1,259.51 1,194.08 4,989
12/11/2018 9 AM EST 1,259.66 1,194.10 5,004
12/11/2018 10 AM EST 1,259.77 1,194.11 4,978
12/11/2018 11 AM EST 1,260.00 1,194.06 4,983
12/11/2018 12 PM EST 1,260.11 1,194.09 4,993
12/11/2018 1 PM EST 1,259.92 1,194.06 4,971
12/11/2018 2 PM EST 1,259.81 1,194.03 4,944
12/11/2018 3 PM EST 1,259.64 1,194.03 4,932
12/11/2018 4 PM EST 1,259.46 1,194.08 4,931
12/11/2018 5 PM EST 1,259.30 1,194.04 4,925
12/11/2018 6 PM EST 1,259.21 1,194.08 4,916
12/11/2018 7 PM EST 1,259.08 1,194.05 4,934
12/11/2018 8 PM EST 1,259.32 1,194.06 4,932
12/11/2018 9 PM EST 1,259.52 1,194.05 4,940
12/11/2018 10 PM EST 1,259.76 1,194.07 4,951
12/11/2018 11 PM EST 1,259.95 1,194.08 4,957
12/12/2018 12 AM EST 1,259.79 1,194.08 4,929
12/12/2018 1 AM EST 1,259.68 1,194.04 4,927
12/12/2018 2 AM EST 1,259.58 1,194.04 4,914

Elevations are in feet above sea level. Discharges are in cubic feet per second and are reported at the end of the hour.